Lexington Weather

Lexington, Massachusetts, USA

30°F
4/1/2020 3:17am 
  • Lexington Conditions: Clear
  • Temperature: 29.5°F / -1.4°CColder 0.3°F than last hour.
  • Dew Point: 27.5°F 
  • Relative Humidity: 92%Increased 1.0% since last hour.
  • Wind: Calm, 10-min avg: Calm, gust: 2 mph
  • Barometer: 29.88 in Steady
  • Visibility: 10 miles
  • Snow Today: 0.0 in
  •   

Regional Weather Roundup
for Boston / Norton, MA

        
000
ASUS41 KBOX 301604
RWRBOX

REGIONAL WEATHER ROUNDUP
NATIONAL WEATHER SERVICE BOSTON/NORTON MA
1200 PM EDT MON MAR 30 2020

NOTE:  "FAIR" INDICATES FEW OR NO CLOUDS BELOW 12,000 FEET WITH NO 
SIGNIFICANT WEATHER AND/OR OBSTRUCTIONS TO VISIBILITY.

MAZALL-301700-
EASTERN MASSACHUSETTS
  
CITY           SKY/WX    TMP DP  RH WIND       PRES   REMARKS
BOSTON         CLOUDY    41  39  93 NE18      29.97F FOG              
BEVERLY        CLOUDY    41  38  89 NE7       29.97F                  
LAWRENCE       CLOUDY    41  38  89 NE15      29.99F                  
BEDFORD        CLOUDY    43  37  79 NE12      29.96F                  
BLUE HILL        N/A     38  38 100 NE13G23   29.93F WCI  30          
NORWOOD        CLOUDY    44  38  79 NE12G21   29.96F                  
MARSHFIELD     CLOUDY    43  43 100 VRB7G15   29.96F FOG              
PLYMOUTH       CLOUDY    42  40  92 N14G23      N/A  FOG              
TAUNTON        CLOUDY    42  39  89 N10       29.94F                  
NEW BEDFORD    CLOUDY    42  41  96 NE12G21   29.92F FOG              
$$

MAZALL-301700-
CAPE COD AND THE ISLANDS
  
CITY           SKY/WX    TMP DP  RH WIND       PRES   REMARKS
FALMOUTH       CLOUDY    41  41 100 NE12G23   29.93S FOG              
HYANNIS        CLOUDY    45  41  86 N10G21    29.90S FOG              
CHATHAM        CLOUDY    44  40  85 VRB7G17   29.92S                  
PROVINCETOWN   CLOUDY    43  40  89 NE14G20   29.94F FOG              
NANTUCKET      CLOUDY    45  42  89 N21G29    29.88F FOG              
MARTHAS VNYRD  CLOUDY    44  41  89 N17G24    29.91F FOG              
$$
 
MAZALL-301700-
CENTRAL AND WESTERN MASSACHUSETTS
  
CITY           SKY/WX    TMP DP  RH WIND       PRES   REMARKS
WORCESTER      CLOUDY    38  34  85 E10       29.95R WCI  31          
FITCHBURG      CLOUDY    40  35  83 NE8       29.98F                  
ORANGE         CLOUDY    41  35  79 E10       29.97F                  
SPRINGFIELD    CLOUDY    42  35  75 E8        29.94F                  
WESTFIELD      CLOUDY    42  35  76 NE8       29.95F                  
NORTH ADAMS    LGT RAIN  38  34  85 E13       29.94S WCI  30          
PITTSFIELD     LGT RAIN  38  35  89 NE7       29.90F                  
$$
 
RIZALL-301700-
RHODE ISLAND
  
CITY           SKY/WX    TMP DP  RH WIND       PRES   REMARKS
PROVIDENCE     CLOUDY    44  38  79 NE14      29.95F                  
NEWPORT        CLOUDY    44  39  82 N16G22    29.92F                  
BLOCK ISLAND   CLOUDY    43  39  86 NE17G24   29.92F                  
SMITHFIELD     CLOUDY    41  39  93 NE13      29.94F                  
WESTERLY       CLOUDY    48  38  68 N13G18    29.93F                  
$$
 
CTZALL-301700-
CONNECTICUT
  
CITY           SKY/WX    TMP DP  RH WIND       PRES   REMARKS
BRADLEY INTL   CLOUDY    44  36  73 N8        29.95F                  
HARTFORD       CLOUDY    45  37  73 N5        29.96F                  
BRIDGEPORT     CLOUDY    47  39  74 CALM      29.94F                  
DANBURY        CLOUDY    42  38  85 CALM      29.94F                  
GROTON         CLOUDY    46  41  82 N13       29.92F                  
NEW HAVEN      CLOUDY    47  39  74 N8        29.94F                  
CHESTER        CLOUDY    46  39  76 N7        29.94R                  
MERIDEN        CLOUDY    44  37  76 VRB6      29.95S                  
WILLIMANTIC    CLOUDY    44  37  76 NE10      29.95F                  
OXFORD         CLOUDY    42  38  85 VRB3      29.93F                  
$$

MEZ002-015-021-024-NHZ003-005-008-011-012-014-VTZ005-008-301700-
NORTHERN NEW ENGLAND
  
CITY           SKY/WX    TMP DP  RH WIND       PRES   REMARKS
PORTLAND ME    CLOUDY    39  35  86 NE14      30.04F FOG     WCI  31  
BANGOR ME      LGT SNOW  35  32  88 NE6       30.10S FOG     WCI  30  
CONCORD NH     CLOUDY    40  35  83 NE12      29.99F                  
MANCHESTER NH  CLOUDY    41  37  86 NE9       29.98F                  
NASHUA NH      CLOUDY    40  38  93 NE7       29.99F                  
PORTSMOUTH NH  CLOUDY    40  37  92 NE15G23   29.98  FOG     WCI  31  
JAFFREY NH     CLOUDY    38  36  92 VRB3      29.95F                  
KEENE NH       CLOUDY    40  34  79 VRB3      29.97S                  
BURLINGTON VT  LGT RAIN  45  37  73 S12       29.90R                  
MT. WASHINGTON PTSUNNY   30  28  93 NW23        N/A  WCI  17          
$$

NYZ052-076-301700-
EASTERN NEW YORK
  
CITY           SKY/WX    TMP DP  RH WIND       PRES   REMARKS
ALBANY         LGT RAIN  44  36  73 S10       29.92S                  
NEW YORK CITY  CLOUDY    45  39  79 E6        29.94F                  
$$
 
ANZALL-301700-
MARINE OBSERVATIONS
  
STATION/POSITION TIME  TEMP    WIND        PRES    VSBY  WAVE
                       AIR SEA DIR/SP/G                  HT/PER
                 (UTC) (F)     (DEG/KT/KT) (MB)    (MI)  (FT/S)
BOSTON BUOY      1550   40 43   30/ 16/ 19 1014.4F         9/ 8
BUZZARDS BAY     1500          360/ 16/ 17 1015.0R
NANTUCKET SOUND  1540                        N/A           2/ 4
MASS BAY-STELLWA 1504   39 42   60/ 16/ 19 1013.9F  1 7/8 10/ 8
ISLE OF SHOALS   1500   38      40/ 19/ 21 1015.8F
S OF BLOCK IS    1530      44                N/A           6/ 9
$$

......................KEY.........................
  SKY/WX - SKY CONDITION/PRESENT WEATHER
  TMP    - TEMPERATURE IN FAHRENHEIT
  DWPT   - DEWPOINT IN FAHRENHEIT
  RH     - RELATIVE HUMIDITY IN PERCENT
  WIND   - DIRECTION AND SPEED IN MPH
  PRES   - MEAN SEA LEVEL PRESSURE IN INCHES OF HG
  WCI    - WIND CHILL INDEX
  VSB    - VISIBILITY IN MILES
  HX     - HEAT INDEX
  TC     - TEMPERATURE IN CELSIUS
  VRB    - VARIABLE WIND DIRECTION
  N/A    - NOT AVAILABLE
  
      

Other recent Regional Weather Roundups

Wed Apr 1, 3:04am

Wed Apr 1, 2:04am

Wed Apr 1, 1:04am

Wed Apr 1, 12:04am

Tue Mar 31, 11:04pm

Tue Mar 31, 10:04pm

Tue Mar 31, 9:04pm

Tue Mar 31, 8:04pm

Tue Mar 31, 7:04pm

Tue Mar 31, 6:04pm

Tue Mar 31, 4:04pm

Tue Mar 31, 3:04pm

Tue Mar 31, 2:04pm

Tue Mar 31, 1:04pm

Tue Mar 31, 12:05pm

Tue Mar 31, 11:04am

Tue Mar 31, 10:05am

Tue Mar 31, 9:04am

Tue Mar 31, 8:04am

Tue Mar 31, 7:05am

Tue Mar 31, 6:04am

Tue Mar 31, 5:04am

Tue Mar 31, 4:04am

Tue Mar 31, 3:04am

Tue Mar 31, 2:04am

Tue Mar 31, 1:04am

Tue Mar 31, 12:04am

Mon Mar 30, 11:04pm

Mon Mar 30, 10:04pm

Mon Mar 30, 9:05pm

Mon Mar 30, 8:04pm

Mon Mar 30, 7:04pm

Mon Mar 30, 6:04pm

Mon Mar 30, 5:05pm

Mon Mar 30, 4:04pm

Mon Mar 30, 3:04pm

Mon Mar 30, 2:04pm

Mon Mar 30, 1:04pm

Mon Mar 30, 11:04am

Mon Mar 30, 10:04am

Mon Mar 30, 9:04am

Mon Mar 30, 8:04am

Mon Mar 30, 7:04am

Mon Mar 30, 6:04am

Mon Mar 30, 5:04am

Mon Mar 30, 4:04am

Mon Mar 30, 3:05am

Mon Mar 30, 2:04am

Mon Mar 30, 1:04am

Mon Mar 30, 12:04am

Sun Mar 29, 11:04pm

Sun Mar 29, 10:05pm

Sun Mar 29, 9:04pm

Sun Mar 29, 8:04pm

Sun Mar 29, 7:04pm

Sun Mar 29, 6:04pm

Sun Mar 29, 5:05pm

Sun Mar 29, 4:04pm

Sun Mar 29, 3:04pm

Sun Mar 29, 2:04pm

Sun Mar 29, 1:05pm

Sun Mar 29, 12:04pm

Sun Mar 29, 11:04am

Sun Mar 29, 10:04am

Sun Mar 29, 9:04am

Sun Mar 29, 8:04am

Sun Mar 29, 7:04am

Sun Mar 29, 6:04am

Sun Mar 29, 5:04am

Sun Mar 29, 4:04am

Meta data:

ID: 5afb7ae1-c8a7-4f0e-9314-fd98eb6f7da9
Link: https://api.weather.gov/products/5afb7ae1-c8a7-4f0e-9314-fd98eb6f7da9